[[{"header":{"parameterUnit":"m.s-1","parameterCategory":1,"la1":30.2991,"la2":30.254,"lo1":-89.0895,"lo2":-89.0444,"dy":0.0017,"dx":0.0017,"nx":28,"ny":28,"refTime":"2024-08-18T09:00:00:Z","depth":0,"parameterNumber":2,"parameterNumberName":"U-component_of_WINDS"},"data":[0,0,0,0,0,0,0,0,0,0,0,0,0,0,0,0,0,0,0,0,0,0,0,0,0,0,0,0,0,0,0,0,0,0,0,0,0,0,0,0,0,0,0,0,0,0,0,0,0,0,0,0,0,0,0,0,0,0,1.9887,1.9888,0,1.9927,1.9927,1.9928,1.9919,1.9918,1.9917,1.9917,1.9965,1.9967,1.9969,0,0,0,0,0,0,0,0,0,0,0,0,0,1.9809,1.9811,1.9887,1.9888,1.9888,1.9927,1.9927,1.9928,1.9919,1.9918,1.9917,1.9916,1.9964,1.9966,1.9969,0,0,0,0,0,0,0,0,0,0,0,0,0,1.9846,1.9811,1.9887,1.9888,1.9889,1.9927,1.9927,1.9928,1.9919,1.9918,1.9917,1.9916,1.9963,1.9966,1.9969,2.0011,0,0,1.9978,1.998,0,0,0,0,0,0,0,0,1.9844,1.9849,1.9888,1.9888,1.9889,1.9917,1.9917,1.9956,1.992,1.9908,1.9917,1.9915,1.995,1.9954,1.9964,2.0013,2.0015,1.9979,1.998,1.9982,1.9983,0,0,0,0,0,0,0,1.9841,1.9847,1.9903,1.9888,1.9889,1.9889,1.9892,1.9925,1.9935,1.9909,1.9908,1.9913,1.995,1.9961,1.9965,2.0016,1.9978,1.9981,1.9983,1.9984,2.01,2.0101,0,0,0,0,0,0,1.9837,1.9845,1.9902,1.9904,1.9863,1.9891,1.9895,1.9909,1.9935,1.9937,1.9914,1.9912,1.9957,1.9962,1.9967,2.0017,1.9982,1.9984,1.9986,2.0099,2.01,2.0102,0,0,0,0,0,0,1.9835,1.9842,1.99,1.9874,1.9882,1.9893,1.9909,1.991,1.9921,1.9938,1.9941,1.9923,1.9956,1.9963,1.9999,2.0019,1.9986,1.9989,2.0097,2.0099,2.0101,2.0118,0,0,0,0,0,0,1.9833,1.9842,1.9856,1.9875,1.9883,1.993,1.991,1.9912,1.9926,1.9924,1.9948,1.995,1.9956,1.9995,2.0002,2.0022,1.9991,2.0096,2.0098,2.01,2.0116,2.012,2.0124,0,0,0,0,0,1.983,1.9861,1.9857,1.9864,1.9901,1.9931,1.9936,1.994,1.9927,1.9943,1.9954,1.995,2.0015,1.9999,2.0007,2.0028,2.0094,2.0097,2.01,2.0114,2.0119,2.0124,0,0,0,0,0,0,1.9849,1.9864,1.986,1.9897,1.9912,1.993,1.995,1.9946,1.9967,1.9965,1.997,1.9976,2.0013,2.0024,2.0006,2.0069,2.0053,2.0058,2.0061,2.0066,2.007,2.0067,1.9993,0,0,0,0,0,1.9856,1.9877,1.989,1.9922,1.993,1.9938,1.9951,1.9952,1.997,1.9977,1.9991,2.001,2.0034,2.0051,2.0075,2.0117,2.0122,2.0135,2.014,2.0143,2.0147,2.017,2.0177,2.0111,2.0111,2.0111,0,0,1.9874,1.9885,1.9898,1.9926,1.9938,1.9961,1.9944,1.997,1.9987,1.9982,2.0016,2.0027,2.0048,2.0087,2.0106,2.0098,2.0166,2.0147,2.0149,2.0152,2.0174,2.018,2.0186,2.0113,2.0113,2.0112,0,0,1.9917,1.9927,1.9954,1.9966,1.9983,1.9988,1.9995,2.0012,2.0018,2.0052,2.0048,2.007,2.0112,2.0127,2.0141,2.0188,2.0185,2.0195,2.0218,2.024,2.0245,2.025,2.0267,2.0273,2.0199,2.0199,2.02,0,1.9937,1.997,1.9969,1.9994,2.0007,2.0,2.0028,2.004,2.0066,2.0076,2.0066,2.0118,2.0132,2.0174,2.0185,2.0196,2.0205,2.0193,2.0244,2.0249,2.0253,2.0269,2.0276,2.0201,2.0201,2.02,2.02,0,1.9994,2.0017,2.0037,2.0058,2.0073,2.01,2.0105,2.012,2.0119,2.0126,2.016,2.0176,2.0203,2.0213,2.0214,2.0256,2.025,2.0242,2.0226,2.026,2.0276,2.0282,2.0202,2.0202,2.0202,2.0201,0,0,2.0052,2.007,2.0078,2.0087,2.0105,2.0124,2.015,2.0173,2.0186,2.0204,2.0227,2.0262,2.0254,2.0269,2.0271,2.0291,2.0327,2.028,2.0281,2.0289,2.0374,2.0381,2.0388,2.0324,2.0325,2.0326,2.0372,0,2.0098,2.0142,2.0141,2.0183,2.0204,2.0196,2.0219,2.0234,2.024,2.026,2.0268,2.0293,2.028,2.0289,2.0308,2.0318,2.0344,2.0315,2.0348,2.0349,2.0343,2.0396,2.0403,2.0446,2.0378,2.0379,2.038,0,2.0157,2.0173,2.0216,2.0229,2.0238,2.0258,2.0279,2.0298,2.0314,2.0317,2.0333,2.0331,2.036,2.0341,2.0381,2.0361,2.0375,2.0382,2.0384,2.0388,2.0368,2.0403,2.046,2.0467,2.039,2.0389,2.0388,0,2.0196,2.0228,2.0258,2.0266,2.0282,2.0296,2.0304,2.0319,2.0332,2.0351,2.036,2.0382,2.0395,2.0413,2.0418,2.0404,2.0459,2.0441,2.0464,2.0464,2.0477,2.0476,2.0538,2.0484,2.0483,2.0483,2.0483,0,2.0247,2.0274,2.0275,2.0294,2.0323,2.0322,2.0353,2.036,2.0372,2.0393,2.0388,2.0409,2.0414,2.0435,2.044,2.0472,2.0478,2.0483,2.0484,2.0484,2.0483,2.0494,2.0491,2.0485,2.0485,2.0484,2.0484,0,2.0297,2.0298,2.033,2.0341,2.0344,2.0366,2.0376,2.0395,2.0399,2.0426,2.0432,2.044,2.0465,2.0471,2.0502,2.0505,2.0543,2.0541,2.0537,2.0538,2.056,2.0558,2.0632,2.0642,2.058,2.0581,2.0581,0,2.033,2.035,2.0362,2.0374,2.0382,2.0402,2.0414,2.0414,2.0428,2.0446,2.0463,2.0486,2.0505,2.0546,2.0556,2.0579,2.0578,2.0602,2.0582,2.0581,2.058,2.0579,2.0581,2.0607,2.0608,2.0608,2.0609,0,2.039,2.0388,2.0406,2.0423,2.0437,2.0451,2.0465,2.0476,2.0477,2.0493,2.0517,2.0531,2.056,2.0585,2.0607,2.0618,2.0614,2.0614,2.0621,2.0622,2.0619,2.0621,2.0549,2.0613,2.0613,2.0612,2.0612,2.0612,2.0433,2.045,2.046,2.0479,2.0488,2.05,2.0518,2.0523,2.0542,2.0564,2.0563,2.0589,2.0604,2.0633,2.0645,2.0666,2.0659,2.0669,2.0672,2.0674,2.0676,2.0614,2.0671,2.067,2.067,2.067,2.067,0,2.0493,2.0498,2.0515,2.0532,2.0547,2.0539,2.0553,2.0567,2.0589,2.0602,2.0619,2.0646,2.0669,2.0679,2.0702,2.0717,2.0716,2.0724,2.0723,2.0726,2.0681,2.0673,2.0724,2.0724,2.0724,2.0724,2.0724,2.0724,2.0525,2.0553,2.0553,2.0586,2.0592,2.0615,2.0624,2.0635,2.0645,2.0675,2.0692,2.0697,2.071,2.0733,2.0754,2.0756,2.0766,2.0774,2.0776,2.0734,2.0729,2.0724,2.0717,2.0776,2.0776,2.0819,2.0819,2.082]},{"header":{"parameterUnit":"m.s-1","parameterCategory":1,"la1":30.2991,"la2":30.254,"lo1":-89.0895,"lo2":-89.0444,"dy":0.0017,"dx":0.0017,"nx":28,"ny":28,"refTime":"2024-08-18T09:00:00:Z","depth":0,"parameterNumber":3,"parameterNumberName":"V-component_of_WINDS"},"data":[0,0,0,0,0,0,0,0,0,0,0,0,0,0,0,0,0,0,0,0,0,0,0,0,0,0,0,0,0,0,0,0,0,0,0,0,0,0,0,0,0,0,0,0,0,0,0,0,0,0,0,0,0,0,0,0,0,0,-6.2155,-6.2156,0,-6.2291,-6.2292,-6.2294,-6.2287,-6.2285,-6.2283,-6.2281,-6.2414,-6.2419,-6.2424,0,0,0,0,0,0,0,0,0,0,0,0,0,-6.1883,-6.1888,-6.2154,-6.2156,-6.2158,-6.2291,-6.2293,-6.2294,-6.2287,-6.2284,-6.2282,-6.228,-6.2412,-6.2418,-6.2425,0,0,0,0,0,0,0,0,0,0,0,0,0,-6.2008,-6.1889,-6.2154,-6.217,-6.2173,-6.229,-6.2293,-6.2295,-6.2287,-6.2284,-6.2281,-6.2279,-6.241,-6.2418,-6.2425,-6.2533,0,0,-6.245,-6.2453,0,0,0,0,0,0,0,0,-6.2001,-6.2018,-6.2166,-6.2169,-6.2173,-6.2269,-6.2245,-6.2375,-6.2288,-6.2244,-6.2281,-6.2277,-6.2367,-6.2379,-6.241,-6.254,-6.2545,-6.2451,-6.2456,-6.2459,-6.2461,0,0,0,0,0,0,0,-6.1992,-6.2012,-6.2208,-6.2168,-6.2172,-6.2169,-6.2184,-6.227,-6.232,-6.2247,-6.2247,-6.2264,-6.2368,-6.2403,-6.2413,-6.2547,-6.245,-6.2458,-6.2463,-6.2466,-6.2772,-6.2775,0,0,0,0,0,0,-6.1981,-6.2005,-6.2204,-6.2212,-6.2078,-6.2176,-6.2193,-6.2241,-6.2319,-6.2328,-6.2266,-6.2263,-6.239,-6.2404,-6.2418,-6.255,-6.2459,-6.2466,-6.2471,-6.2769,-6.2773,-6.2776,0,0,0,0,0,0,-6.1975,-6.1999,-6.2198,-6.2109,-6.2134,-6.2184,-6.2238,-6.2245,-6.2279,-6.2333,-6.2342,-6.2292,-6.2389,-6.2407,-6.2505,-6.2554,-6.247,-6.2477,-6.2765,-6.277,-6.2775,-6.2814,0,0,0,0,0,0,-6.1967,-6.1996,-6.2039,-6.211,-6.2139,-6.2285,-6.2241,-6.225,-6.2294,-6.2291,-6.236,-6.2369,-6.2388,-6.2493,-6.2513,-6.2564,-6.2484,-6.2761,-6.2767,-6.2773,-6.2808,-6.282,-6.2829,0,0,0,0,0,-6.1957,-6.2043,-6.2041,-6.2065,-6.2193,-6.2288,-6.2304,-6.2327,-6.2298,-6.2341,-6.2376,-6.2366,-6.2546,-6.2504,-6.2526,-6.2579,-6.2758,-6.2765,-6.2773,-6.2804,-6.2817,-6.2829,0,0,0,0,0,0,-6.1974,-6.2052,-6.2051,-6.2163,-6.2219,-6.2287,-6.2341,-6.234,-6.2404,-6.2398,-6.2421,-6.2437,-6.2536,-6.2568,-6.2519,-6.2688,-6.2648,-6.266,-6.2664,-6.2677,-6.2688,-6.2677,-6.249,0,0,0,0,0,-6.1991,-6.2063,-6.2127,-6.2219,-6.2248,-6.229,-6.2332,-6.2345,-6.2403,-6.2426,-6.2468,-6.2523,-6.2592,-6.2636,-6.2703,-6.2814,-6.2828,-6.2861,-6.2872,-6.288,-6.289,-6.2951,-6.2966,-6.2801,-6.2801,-6.2801,0,0,-6.2026,-6.2078,-6.2122,-6.2224,-6.2269,-6.2342,-6.231,-6.2387,-6.2441,-6.2437,-6.2533,-6.2566,-6.2629,-6.2734,-6.2783,-6.2764,-6.2939,-6.289,-6.2896,-6.2901,-6.296,-6.2976,-6.2989,-6.2806,-6.2805,-6.2804,0,0,-6.2127,-6.2174,-6.2256,-6.2303,-6.2373,-6.2401,-6.242,-6.2489,-6.2511,-6.2609,-6.2607,-6.2671,-6.2789,-6.2834,-6.2873,-6.2993,-6.2987,-6.3014,-6.3068,-6.3127,-6.314,-6.3151,-6.3194,-6.3209,-6.3024,-6.3024,-6.3024,0,-6.2161,-6.2272,-6.2298,-6.2378,-6.2422,-6.2425,-6.2507,-6.2551,-6.2638,-6.2668,-6.2646,-6.2796,-6.2838,-6.2954,-6.2984,-6.3015,-6.3037,-6.3005,-6.3136,-6.3148,-6.3159,-6.32,-6.3216,-6.3027,-6.3027,-6.3026,-6.3026,0,-6.2311,-6.2388,-6.2446,-6.2533,-6.2584,-6.2665,-6.2701,-6.275,-6.2759,-6.2788,-6.2887,-6.2939,-6.3016,-6.3045,-6.3053,-6.3162,-6.3149,-6.3132,-6.3091,-6.3177,-6.3216,-6.3232,-6.3031,-6.303,-6.3029,-6.3028,0,0,-6.2423,-6.2526,-6.2546,-6.2586,-6.2665,-6.2724,-6.2804,-6.2883,-6.2924,-6.2984,-6.3051,-6.3153,-6.3138,-6.3182,-6.3195,-6.3247,-6.3339,-6.3224,-6.3226,-6.3243,-6.3462,-6.3474,-6.3491,-6.3336,-6.334,-6.3342,-6.3457,0,-6.2532,-6.2677,-6.2703,-6.2829,-6.2901,-6.2905,-6.2975,-6.303,-6.306,-6.3124,-6.3156,-6.3228,-6.3203,-6.323,-6.3282,-6.3317,-6.3383,-6.3309,-6.3397,-6.34,-6.338,-6.3512,-6.3524,-6.363,-6.3472,-6.3475,-6.3476,0,-6.2677,-6.2744,-6.2878,-6.2948,-6.2979,-6.3042,-6.3116,-6.3178,-6.324,-6.3258,-6.3308,-6.3316,-6.3399,-6.3356,-6.3469,-6.3418,-6.3456,-6.3479,-6.3484,-6.3491,-6.3442,-6.3522,-6.3664,-6.3679,-6.3501,-6.3499,-6.3497,0,-6.2745,-6.2869,-6.2965,-6.2999,-6.3084,-6.3128,-6.3164,-6.3224,-6.327,-6.3334,-6.3364,-6.3436,-6.3475,-6.353,-6.3557,-6.3524,-6.3668,-6.3628,-6.3684,-6.3683,-6.3713,-6.371,-6.3861,-6.3739,-6.3739,-6.3739,-6.3738,0,-6.2863,-6.2944,-6.2997,-6.3056,-6.3148,-6.3177,-6.3266,-6.3301,-6.3355,-6.342,-6.3427,-6.3488,-6.352,-6.3585,-6.3606,-6.3696,-6.3714,-6.373,-6.3734,-6.3729,-6.3726,-6.3752,-6.3745,-6.3743,-6.3742,-6.3741,-6.374,0,-6.2953,-6.2992,-6.3098,-6.317,-6.319,-6.3254,-6.3315,-6.3372,-6.3403,-6.3485,-6.3506,-6.3554,-6.3631,-6.3664,-6.3757,-6.3772,-6.3874,-6.3874,-6.3854,-6.3855,-6.3909,-6.3904,-6.4082,-6.4106,-6.3969,-6.397,-6.3971,0,-6.3025,-6.3088,-6.3168,-6.3214,-6.3253,-6.3325,-6.3373,-6.3404,-6.3453,-6.353,-6.3577,-6.3655,-6.3719,-6.3841,-6.3883,-6.3954,-6.3955,-6.4012,-6.3965,-6.3958,-6.3954,-6.395,-6.3956,-6.402,-6.4022,-6.4023,-6.4024,0,-6.3148,-6.3165,-6.3234,-6.3311,-6.3369,-6.343,-6.349,-6.3526,-6.3567,-6.3621,-6.3701,-6.3751,-6.3848,-6.3925,-6.4,-6.4035,-6.4036,-6.4039,-6.4055,-6.4049,-6.4035,-6.4043,-6.3876,-6.4034,-6.4033,-6.4032,-6.4031,-6.4031,-6.323,-6.3287,-6.3353,-6.343,-6.348,-6.3536,-6.3593,-6.3633,-6.3701,-6.3785,-6.3799,-6.3884,-6.3945,-6.4046,-6.4085,-6.4151,-6.4136,-6.4161,-6.4166,-6.4172,-6.4175,-6.4026,-6.4165,-6.4164,-6.4164,-6.4164,-6.4164,0,-6.3353,-6.3396,-6.3467,-6.3553,-6.3614,-6.3613,-6.3679,-6.3729,-6.3805,-6.3863,-6.3927,-6.4019,-6.4094,-6.4143,-6.4218,-6.4262,-6.4264,-6.428,-6.4276,-6.4284,-6.4184,-6.4162,-6.4277,-6.4277,-6.4277,-6.4277,-6.4277,-6.4277,-6.3423,-6.352,-6.3545,-6.3665,-6.3707,-6.3793,-6.3831,-6.3883,-6.393,-6.4033,-6.4097,-6.4129,-6.4184,-6.4263,-6.4331,-6.4344,-6.437,-6.4388,-6.4399,-6.4303,-6.4291,-6.428,-6.4259,-6.4393,-6.4394,-6.4494,-6.4495,-6.4495]}]]